Worcester, MA

9:23 AM EDT on May 30, 2017 (GMT -0400)
Worcester Regional

Weather History for KORH - January, 2014

Change the Weather History Date:

Saturday, January 11, 2014

  Actual Average Record
Temperature  
Mean Temperature 47 °F 24 °F  
Max Temperature 57 °F 31 °F 58 °F (1924)
Min Temperature 36 °F 17 °F -9 °F (1968)
Degree Days  
Heating Degree Days 18 41  
Month to date heating degree days 501 447  
Since 1 July heating degree days 3060 2951  
Cooling Degree Days 0 0  
Month to date cooling degree days 0 0  
Year to date cooling degree days 0 0  
Moisture  
Dew Point 48 °F    
Average Humidity 97    
Maximum Humidity 100    
Minimum Humidity 93    
Precipitation  
Precipitation 0.50 in 0.11 in 1.61 in (1983)
Month to date precipitation 1.86 1.20  
Year to date precipitation 1.86 1.20  
Snow  
Snow 0.00 in 0.50 in 8.00 in (1922)
Month to date snowfall 10.8 6.0  
Since 1 July snowfall 30.2 23.2  
Snow Depth 0.00 in    
Sea Level Pressure  
Sea Level Pressure 29.72 in    
Wind  
Wind Speed 15 mph (SSW)    
Max Wind Speed 32 mph    
Max Gust Speed 41 mph    
Visibility 3 miles    
Events Fog , Rain    
T = Trace of Precipitation, MM = Missing Value Source: NWS Daily Summary

Daily Weather History Graph

Daily Weather History Graph

Search for Another Location

Airport or City:

Trip Planner

Search our weather history database for the weather conditions in past years. The results will help you decide how hot, cold, wet, or windy it might be!

Date:

Astronomy

Jan. 11, 2014 Rise Set
Actual Time 7:15 AM EST 4:35 PM EST
Civil Twilight 6:44 AM EST 5:07 PM EST
Nautical Twilight 6:09 AM EST 5:42 PM EST
Astronomical Twilight 5:35 AM EST 6:15 PM EST
Moon 1:18 PM EST (1/11) 3:16 AM EST (1/11)
Length of Visible Light 10h 23m
Length of Day
9h 20m
Waxing Gibbous, 83% of the Moon is Illuminated
Jan 11
Waxing Gibbous
Jan 15
Full
Jan 24
Last Quarter
Jan 30
New
Feb 6
First Quarter

Hourly Weather History & Observations

Time (EST) Temp. Windchill Dew Point Humidity Pressure Visibility Wind Dir Wind Speed Gust Speed Precip Events Conditions
12:54 AM 36.0 °F 32.1 °F 36.0 °F 100% 30.23 in 0.5 mi SSW 4.6 mph - N/A Fog Fog
1:21 AM 36.0 °F 32.1 °F 36.0 °F 100% 30.19 in 0.2 mi SSW 4.6 mph - 0.00 in Fog , Rain Light Rain
1:44 AM 37.0 °F 31.6 °F 37.0 °F 100% 30.19 in 0.5 mi SSW 6.9 mph - 0.01 in Fog , Rain Light Rain
1:54 AM 37.0 °F 31.6 °F 37.0 °F 100% 30.22 in 0.5 mi SSW 6.9 mph - 0.02 in Fog , Rain Light Rain
2:54 AM 37.9 °F 33.5 °F 37.9 °F 100% 30.18 in 0.5 mi South 5.8 mph - 0.02 in Fog Fog
3:15 AM 37.0 °F 32.4 °F 37.0 °F 100% 30.13 in 0.2 mi South 5.8 mph - 0.00 in Fog , Rain Light Rain
3:22 AM 37.0 °F 33.3 °F 37.0 °F 100% 30.13 in 0.2 mi South 4.6 mph - 0.00 in Fog , Rain Light Rain
3:31 AM 37.0 °F 31.6 °F 37.0 °F 100% 30.13 in 0.5 mi South 6.9 mph - 0.01 in Fog , Rain Light Rain
3:54 AM 37.9 °F 32.1 °F 37.9 °F 100% 30.15 in 0.2 mi SSW 8.1 mph - 0.02 in Fog Fog
4:06 AM 37.9 °F 32.7 °F 37.9 °F 100% 30.10 in 0.2 mi South 6.9 mph - N/A Fog Fog
4:54 AM 39.9 °F 34.5 °F 39.9 °F 100% 30.11 in 0.2 mi SSW 8.1 mph - 0.01 in Fog , Rain Light Rain
5:54 AM 41.0 °F 37.1 °F 41.0 °F 100% 30.07 in 0.2 mi South 5.8 mph - 0.01 in Fog , Rain Light Rain
6:54 AM 43.0 °F 37.7 °F 42.1 °F 97% 30.04 in 0.2 mi South 9.2 mph - 0.00 in Fog Fog
7:35 AM 44.1 °F 38.6 °F 44.1 °F 100% 29.97 in 0.2 mi South 10.4 mph - N/A Fog Fog
7:45 AM 44.1 °F 39.0 °F 44.1 °F 100% 29.95 in 0.2 mi South 9.2 mph - N/A Fog Fog
7:54 AM 44.1 °F 38.6 °F 44.1 °F 100% 29.98 in 0.2 mi South 10.4 mph - N/A Fog Fog
8:34 AM 46.0 °F 39.0 °F 46.0 °F 100% 29.92 in 0.2 mi South 17.3 mph - 0.00 in Fog , Rain Light Rain
8:44 AM 46.9 °F - 46.9 °F 100% 29.91 in 0.2 mi South 17.3 mph 26.5 mph 0.01 in Fog , Rain Light Rain
8:54 AM 48.0 °F - 48.0 °F 100% 29.93 in 0.2 mi SSW 18.4 mph 25.3 mph 0.01 in Fog , Rain Light Rain
9:54 AM 51.1 °F - 51.1 °F 100% 29.90 in 0.2 mi South 19.6 mph 28.8 mph 0.03 in Fog , Rain Light Rain
10:04 AM 52.0 °F - 52.0 °F 100% 29.87 in 0.2 mi SSW 21.9 mph 31.1 mph 0.00 in Fog , Rain Light Rain
10:11 AM 52.0 °F - 52.0 °F 100% 29.86 in 1.0 mi SSW 17.3 mph 33.4 mph 0.00 in Rain Light Rain
10:19 AM 53.1 °F - 53.1 °F 100% 29.86 in 0.5 mi SSW 19.6 mph 31.1 mph 0.00 in Fog , Rain Light Rain
10:44 AM 53.1 °F - 53.1 °F 100% 29.83 in 0.2 mi SSW 18.4 mph 31.1 mph 0.01 in Fog , Rain Light Rain
10:54 AM 53.1 °F - 53.1 °F 100% 29.84 in 0.2 mi SSW 20.7 mph 28.8 mph 0.01 in Rain Light Rain
11:54 AM 54.0 °F - 54.0 °F 100% 29.77 in 0.2 mi SSW 17.3 mph 28.8 mph 0.02 in Rain Light Rain
12:01 PM 54.0 °F - 54.0 °F 100% 29.74 in 0.8 mi South 16.1 mph 26.5 mph 0.00 in Rain Light Rain
12:54 PM 54.0 °F - 54.0 °F 100% 29.69 in 0.8 mi South 21.9 mph 33.4 mph 0.02 in Rain Light Rain
1:45 PM 54.0 °F - 54.0 °F 100% 29.62 in 3.0 mi South 23.0 mph 33.4 mph 0.02 in Rain Light Rain
1:54 PM 55.0 °F - 54.0 °F 96% 29.63 in 3.0 mi South 27.6 mph 41.4 mph 0.02 in   Overcast
2:35 PM 54.0 °F - 54.0 °F 100% 29.56 in 1.5 mi South 18.4 mph 33.4 mph 0.01 in Rain Light Rain
2:54 PM 55.0 °F - 54.0 °F 96% 29.55 in 1.5 mi South 21.9 mph 33.4 mph 0.02 in Rain Light Rain
3:54 PM 55.0 °F - 54.0 °F 96% 29.52 in 1.5 mi South 17.3 mph 25.3 mph 0.03 in Rain Light Rain
4:11 PM 55.0 °F - 55.0 °F 100% 29.48 in 9.0 mi South 19.6 mph 26.5 mph 0.01 in Rain Light Rain
4:15 PM 55.0 °F - 55.0 °F 100% 29.48 in 2.0 mi SSW 21.9 mph 31.1 mph 0.01 in Rain Light Rain
4:54 PM 55.0 °F - 55.0 °F 100% 29.47 in 2.0 mi SSW 15.0 mph - 0.10 in Rain Rain
5:13 PM 55.0 °F - 55.0 °F 100% 29.42 in 2.0 mi SSW 16.1 mph 21.9 mph 0.00 in Rain Light Rain
5:54 PM 55.9 °F - 55.0 °F 97% 29.40 in 2.0 mi SSW 18.4 mph 27.6 mph 0.02 in Rain Light Rain
6:46 PM 55.9 °F - 55.9 °F 100% 29.36 in 2.0 mi SW 19.6 mph - 0.01 in Rain Light Rain
6:54 PM 57.0 °F - 55.9 °F 96% 29.37 in 2.0 mi SW 19.6 mph 29.9 mph 0.02 in Rain Light Rain
7:31 PM 55.9 °F - 54.0 °F 93% 29.36 in 10.0 mi SW 17.3 mph 28.8 mph 0.03 in Rain Light Rain
7:54 PM 55.0 °F - 53.1 °F 93% 29.37 in 10.0 mi WSW 17.3 mph 28.8 mph 0.04 in Rain Light Rain
8:04 PM 55.0 °F - 53.1 °F 93% 29.36 in 10.0 mi WSW 17.3 mph 25.3 mph 0.00 in Rain Light Rain
8:15 PM 55.0 °F - 53.1 °F 93% 29.37 in 10.0 mi WSW 17.3 mph 28.8 mph 0.02 in Rain Light Rain
8:54 PM 53.1 °F - 52.0 °F 96% 29.37 in 10.0 mi WSW 16.1 mph - 0.05 in Rain Light Rain
9:54 PM 52.0 °F - 51.1 °F 97% 29.31 in 10.0 mi SSW 10.4 mph - 0.03 in Rain Light Rain
10:25 PM 51.1 °F - 51.1 °F 100% 29.29 in 10.0 mi South 13.8 mph - 0.00 in   Overcast
10:34 PM 51.1 °F - 51.1 °F 100% 29.29 in 10.0 mi SSW 13.8 mph - 0.00 in   Overcast
10:54 PM 51.1 °F - 51.1 °F 100% 29.32 in 10.0 mi SSW 16.1 mph 24.2 mph 0.00 in   Overcast
11:20 PM 52.0 °F - 48.9 °F 89% 29.30 in 10.0 mi SW 19.6 mph 27.6 mph 0.00 in Rain Light Rain
11:37 PM 51.1 °F - 48.9 °F 92% 29.29 in 10.0 mi SW 21.9 mph 31.1 mph 0.00 in Rain Light Rain
11:54 PM 51.1 °F - 48.9 °F 92% 29.30 in 5.0 mi SW 21.9 mph 28.8 mph 0.00 in Rain Light Rain